When you browse on this site, cookies collect data to enhance your experience and personalize the content and advertising you see.
Visit our Privacy Policy to learn more. By continuing to use the site, you agree to this use of cookies and data.
  • In Schweiz
  • Länderverzeichnis
  • Für 7 Tage
  • Wassertemperatur
  • Wetterkarte
  • Widgets
  • user-avatar
    Anmelden

    Stündliche Wetter Hrodna

    Heute, 17 Oktober, Donnerstag

    Zeit Temperatur Niederschläge Wind Luftdruck Luftfeuchtigkeit
    00:00 +13°C° 0 mm 5 m/S 748 mmHg 82%
    01:00 +12°C° 0 mm 5 m/S 749 mmHg 81%
    02:00 +10°C° 0 mm 5 m/S 749 mmHg 80%
    03:00 +10°C° 0 mm 5 m/S 749 mmHg 80%
    04:00 +10°C° 0 mm 6 m/S 749 mmHg 79%
    05:00 +10°C° 0 mm 6 m/S 749 mmHg 78%
    06:00 +10°C° 0 mm 6 m/S 749 mmHg 77%
    07:00 +10°C° 0 mm 6 m/S 749 mmHg 76%
    08:00 +10°C° 0 mm 6 m/S 749 mmHg 75%
    09:00 +11°C° 0 mm 7 m/S 749 mmHg 72%
    10:00 +12°C° 0 mm 7 m/S 750 mmHg 68%
    11:00 +14°C° 0 mm 7 m/S 750 mmHg 65%
    12:00 +15°C° 0 mm 6 m/S 751 mmHg 63%
    13:00 +16°C° 0 mm 6 m/S 751 mmHg 62%
    14:00 +16°C° 0 mm 6 m/S 751 mmHg 61%
    15:00 +15°C° 0 mm 5 m/S 751 mmHg 65%
    16:00 +14°C° 0 mm 4 m/S 751 mmHg 70%
    17:00 +14°C° 0 mm 3 m/S 751 mmHg 75%
    18:00 +13°C° 0 mm 3 m/S 751 mmHg 78%
    19:00 +12°C° 0 mm 3 m/S 751 mmHg 80%
    20:00 +12°C° 0 mm 3 m/S 752 mmHg 83%
    21:00 +13°C° 0 mm 2 m/S 752 mmHg 82%
    22:00 +12°C° 0 mm 2 m/S 752 mmHg 82%
    23:00 +12°C° 0 mm 2 m/S 752 mmHg 81%

    Morgen, 18 Oktober, Freitag

    Zeit Temperatur Niederschläge Wind Luftdruck Luftfeuchtigkeit
    00:00 +12°C° 0 mm 2 m/S 752 mmHg 81%
    01:00 +12°C° 0 mm 2 m/S 752 mmHg 80%
    02:00 +12°C° 0 mm 2 m/S 752 mmHg 80%
    03:00 +12°C° 0 mm 2 m/S 752 mmHg 81%
    04:00 +10°C° 0 mm 2 m/S 752 mmHg 82%
    05:00 +10°C° 0 mm 2 m/S 752 mmHg 83%
    06:00 +10°C° 0 mm 2 m/S 752 mmHg 83%
    07:00 +10°C° 0 mm 2 m/S 752 mmHg 83%
    08:00 +10°C° 0 mm 2 m/S 752 mmHg 83%
    09:00 +13°C° 0 mm 2 m/S 752 mmHg 76%
    10:00 +14°C° 0 mm 3 m/S 752 mmHg 69%
    11:00 +16°C° 0 mm 3 m/S 752 mmHg 63%
    12:00 +17°C° 0 mm 3 m/S 752 mmHg 61%
    13:00 +17°C° 0 mm 3 m/S 752 mmHg 60%
    14:00 +18°C° 0 mm 3 m/S 752 mmHg 58%
    15:00 +17°C° 0 mm 2 m/S 751 mmHg 63%
    16:00 +16°C° 0 mm 2 m/S 751 mmHg 67%
    17:00 +16°C° 0 mm 2 m/S 751 mmHg 72%
    18:00 +15°C° 0 mm 2 m/S 751 mmHg 74%
    19:00 +15°C° 0 mm 2 m/S 751 mmHg 77%
    20:00 +14°C° 0 mm 2 m/S 751 mmHg 80%
    21:00 +14°C° 0 mm 2 m/S 751 mmHg 81%
    22:00 +14°C° 0 mm 2 m/S 751 mmHg 83%
    23:00 +14°C° 0 mm 2 m/S 751 mmHg 85%

    übermorgen, 19 Oktober, Samstag

    Zeit Temperatur Niederschläge Wind Luftdruck Luftfeuchtigkeit
    00:00 +13°C° 0 mm 2 m/S 751 mmHg 86%
    01:00 +13°C° 0 mm 2 m/S 751 mmHg 87%
    02:00 +13°C° 0 mm 2 m/S 750 mmHg 88%
    03:00 +13°C° 0 mm 2 m/S 750 mmHg 88%
    04:00 +13°C° 0 mm 2 m/S 750 mmHg 87%
    05:00 +13°C° 0 mm 1 m/S 750 mmHg 87%
    06:00 +13°C° 0 mm 1 m/S 750 mmHg 86%
    07:00 +13°C° 0 mm 1 m/S 750 mmHg 85%
    08:00 +13°C° 0 mm 1 m/S 750 mmHg 83%
    09:00 +14°C° 0 mm 1 m/S 750 mmHg 78%
    10:00 +16°C° 0 mm 1 m/S 750 mmHg 72%
    11:00 +17°C° 0 mm 2 m/S 751 mmHg 67%
    12:00 +18°C° 0 mm 2 m/S 751 mmHg 65%
    13:00 +18°C° 0 mm 2 m/S 750 mmHg 63%
    14:00 +19°C° 0 mm 2 m/S 750 mmHg 61%
    15:00 +19°C° 0 mm 1 m/S 750 mmHg 66%
    16:00 +18°C° 0 mm 1 m/S 750 mmHg 71%
    17:00 +16°C° 0 mm 1 m/S 750 mmHg 75%
    18:00 +16°C° 0 mm 1 m/S 750 mmHg 78%
    19:00 +15°C° 0 mm 1 m/S 751 mmHg 80%
    20:00 +14°C° 0 mm 1 m/S 751 mmHg 82%
    21:00 +14°C° 0 mm 1 m/S 751 mmHg 83%
    22:00 +14°C° 0 mm 1 m/S 751 mmHg 84%
    23:00 +14°C° 0 mm 1 m/S 751 mmHg 84%

    20 Oktober, Sonntag

    Zeit Temperatur Niederschläge Wind Luftdruck Luftfeuchtigkeit
    00:00 +13°C° 0 mm 1 m/S 751 mmHg 85%
    01:00 +13°C° 0 mm 1 m/S 751 mmHg 85%
    02:00 +13°C° 0 mm 1 m/S 751 mmHg 86%
    03:00 +13°C° 0 mm 1 m/S 751 mmHg 87%
    04:00 +13°C° 0 mm 1 m/S 751 mmHg 88%
    05:00 +12°C° 0 mm 1 m/S 751 mmHg 89%
    06:00 +12°C° 0 mm 1 m/S 751 mmHg 89%
    07:00 +12°C° 0 mm 2 m/S 751 mmHg 89%
    08:00 +13°C° 0 mm 2 m/S 751 mmHg 89%
    09:00 +14°C° 0 mm 2 m/S 751 mmHg 84%
    10:00 +15°C° 0 mm 2 m/S 751 mmHg 79%
    11:00 +17°C° 0 mm 2 m/S 752 mmHg 75%
    12:00 +17°C° 0 mm 2 m/S 751 mmHg 72%
    13:00 +18°C° 0 mm 3 m/S 751 mmHg 69%
    14:00 +19°C° 0 mm 3 m/S 751 mmHg 66%
    15:00 +18°C° 0 mm 2 m/S 751 mmHg 70%
    16:00 +17°C° 0 mm 2 m/S 750 mmHg 73%
    17:00 +16°C° 0 mm 2 m/S 750 mmHg 76%
    18:00 +16°C° 0 mm 2 m/S 750 mmHg 78%
    19:00 +15°C° 0 mm 1 m/S 751 mmHg 80%
    20:00 +15°C° 0 mm 1 m/S 751 mmHg 81%
    21:00 +14°C° 0 mm 1 m/S 751 mmHg 82%
    22:00 +14°C° 0 mm 1 m/S 751 mmHg 83%
    23:00 +14°C° 0 mm 1 m/S 751 mmHg 84%

    21 Oktober, Montag

    Zeit Temperatur Niederschläge Wind Luftdruck Luftfeuchtigkeit
    00:00 +14°C° 0 mm 1 m/S 751 mmHg 86%
    01:00 +13°C° 0 mm 2 m/S 751 mmHg 88%
    02:00 +13°C° 0 mm 2 m/S 752 mmHg 89%
    03:00 +12°C° 0 mm 2 m/S 752 mmHg 91%
    04:00 +12°C° 0 mm 2 m/S 752 mmHg 92%
    05:00 +12°C° 0 mm 2 m/S 753 mmHg 93%
    06:00 +12°C° 0 mm 2 m/S 753 mmHg 93%
    07:00 +12°C° 0 mm 2 m/S 754 mmHg 94%
    08:00 +12°C° 0 mm 2 m/S 754 mmHg 94%
    09:00 +13°C° 0 mm 2 m/S 754 mmHg 89%
    10:00 +13°C° 0 mm 3 m/S 755 mmHg 84%
    11:00 +14°C° 0 mm 3 m/S 755 mmHg 79%
    12:00 +16°C° 0 mm 3 m/S 756 mmHg 75%
    13:00 +16°C° 0 mm 3 m/S 756 mmHg 72%
    14:00 +17°C° 0 mm 3 m/S 756 mmHg 68%
    15:00 +16°C° 0 mm 2 m/S 756 mmHg 72%
    16:00 +15°C° 0 mm 2 m/S 756 mmHg 76%
    17:00 +14°C° 0 mm 2 m/S 757 mmHg 80%
    18:00 +13°C° 0 mm 2 m/S 757 mmHg 83%
    19:00 +12°C° 0 mm 1 m/S 757 mmHg 86%
    20:00 +11°C° 0 mm 1 m/S 758 mmHg 89%
    21:00 +11°C° 0 mm 1 m/S 758 mmHg 89%
    22:00 +11°C° 0 mm 1 m/S 758 mmHg 90%
    23:00 +10°C° 0 mm 1 m/S 758 mmHg 90%

    22 Oktober, Dienstag

    Zeit Temperatur Niederschläge Wind Luftdruck Luftfeuchtigkeit
    00:00 +10°C° 0 mm 1 m/S 758 mmHg 89%
    01:00 +10°C° 0 mm 1 m/S 758 mmHg 88%
    02:00 +10°C° 0 mm 1 m/S 759 mmHg 86%
    03:00 +10°C° 0 mm 1 m/S 759 mmHg 88%
    04:00 +9°C° 0 mm 1 m/S 759 mmHg 89%
    05:00 +9°C° 0 mm 1 m/S 759 mmHg 90%
    06:00 +9°C° 0 mm 1 m/S 759 mmHg 91%
    07:00 +9°C° 0 mm 1 m/S 759 mmHg 92%
    08:00 +9°C° 0 mm 1 m/S 759 mmHg 94%
    09:00 +9°C° 0 mm 2 m/S 759 mmHg 90%
    10:00 +10°C° 0 mm 2 m/S 759 mmHg 85%
    11:00 +10°C° 0 mm 2 m/S 760 mmHg 81%
    12:00 +12°C° 0 mm 2 m/S 760 mmHg 77%
    13:00 +13°C° 0 mm 1 m/S 760 mmHg 73%
    14:00 +13°C° 0 mm 1 m/S 760 mmHg 68%
    15:00 +12°C° 0 mm 1 m/S 759 mmHg 71%
    16:00 +11°C° 0 mm 1 m/S 759 mmHg 74%
    17:00 +10°C° 0 mm 2 m/S 759 mmHg 77%
    18:00 +9°C° 0 mm 2 m/S 759 mmHg 80%
    19:00 +8°C° 0 mm 2 m/S 760 mmHg 83%
    20:00 +7°C° 0 mm 3 m/S 760 mmHg 85%
    21:00 +7°C° 0 mm 2 m/S 760 mmHg 87%
    22:00 +6°C° 0 mm 2 m/S 760 mmHg 88%
    23:00 +6°C° 0 mm 2 m/S 760 mmHg 90%
    Mehr zeigen